UKR121 FAOR-FXMM

Flight info

Callsign UKR121
Flight time N/A
Altitude 26000
Route HGV5D HGV UZ16 NEVEN UQ8 ATUXO DCT MZV
Aircraft IL76/H-SDFGHIM1RTUWXY/LB1

Departure

Time N/A
Airport O.R. Tambo International Airport (FAOR)

Arrival

Time 2026-04-27 20:57
Airport Moshoeshoe I International Airport (FXMM)
Time Latitude Longitude Altitude Speed Heading
2026-04-27 20:57 -29.46201 27.55438 5348 ft 0 kts 65°
2026-04-27 20:58 -29.46196 27.55446 5376 ft 3 kts 39°
2026-04-27 20:59 -29.46162 27.55472 5378 ft 11 kts 26°
2026-04-27 20:59 -29.46007 27.55523 5382 ft 33 kts 14°
2026-04-27 20:59 -29.45830 27.55604 5384 ft 12 kts 87°
2026-04-27 20:59 -29.45838 27.55671 5385 ft 4 kts 109°
2026-04-27 21:00 -29.45833 27.55765 5385 ft 18 kts 41°
2026-04-27 21:00 -29.45680 27.55826 5388 ft 22 kts 12°
2026-04-27 21:00 -29.45602 27.55820 5389 ft 0 kts 334°
2026-04-27 21:00 -29.45602 27.55819 5389 ft 0 kts 334°
2026-04-27 21:01 -29.45562 27.55807 5390 ft 5 kts 336°
2026-04-27 21:01 -29.45530 27.55791 5390 ft 4 kts 336°
2026-04-27 21:01 -29.45487 27.55794 5391 ft 6 kts 40°
2026-04-27 21:02 -29.45485 27.55797 5391 ft 1 kts 56°
2026-04-27 21:02 -29.45480 27.55815 5391 ft 0 kts 91°
2026-04-27 21:02 -29.45480 27.55816 5391 ft 0 kts 91°
2026-04-27 21:03 -29.45485 27.55831 5391 ft 0 kts 126°
2026-04-27 21:03 -29.45487 27.55834 5391 ft 2 kts 138°
2026-04-27 21:03 -29.45509 27.55840 5391 ft 7 kts 188°
2026-04-27 21:03 -29.45495 27.55841 5391 ft 0 kts 191°
2026-04-27 21:04 -29.45500 27.55845 5391 ft 0 kts 189°
2026-04-27 21:04 -29.45507 27.55843 5391 ft 0 kts 189°
2026-04-27 21:04 -29.45508 27.55841 5391 ft 0 kts 179°